DAH2016 DAOO-LEAL

Flight info

Callsign DAH2016
Flight time 0h 40m
Altitude 26000
Route SID74 HAMRA DCT RAFOL L150 MAGAL
Aircraft B738/M-SDE2E3FGHIRWXY/LB1

Departure

Time 2026-04-24 21:19
Airport Oran Es-Sénia (Ahmed Ben Bella) International Airport (DAOO)

Arrival

Time 2026-04-24 22:00
Airport Alicante-Elche Miguel Hernández Airport (LEAL)
Time Latitude Longitude Altitude Speed Heading
2026-04-24 20:45 35.61917 -0.61120 302 ft 0 kts 142°
2026-04-24 21:06 35.61919 -0.61121 302 ft 2 kts 142°
2026-04-24 21:06 35.61940 -0.61141 302 ft 4 kts 142°
2026-04-24 21:06 35.61960 -0.61161 303 ft 4 kts 142°
2026-04-24 21:06 35.61983 -0.61177 302 ft 4 kts 165°
2026-04-24 21:07 35.62007 -0.61178 302 ft 4 kts 213°
2026-04-24 21:07 35.62017 -0.61166 305 ft 1 kts 236°
2026-04-24 21:07 35.62018 -0.61165 302 ft 0 kts 236°
2026-04-24 21:11 35.62011 -0.61184 302 ft 5 kts 249°
2026-04-24 21:11 35.61994 -0.61241 302 ft 9 kts 249°
2026-04-24 21:11 35.61971 -0.61318 302 ft 10 kts 256°
2026-04-24 21:11 35.61983 -0.61359 302 ft 5 kts 311°
2026-04-24 21:12 35.62014 -0.61389 302 ft 7 kts 319°
2026-04-24 21:12 35.62027 -0.61444 302 ft 8 kts 256°
2026-04-24 21:12 35.62005 -0.61513 302 ft 10 kts 247°
2026-04-24 21:12 35.61976 -0.61595 302 ft 11 kts 247°
2026-04-24 21:13 35.61943 -0.61693 302 ft 13 kts 247°
2026-04-24 21:13 35.61905 -0.61804 301 ft 15 kts 248°
2026-04-24 21:13 35.61864 -0.61928 302 ft 16 kts 247°
2026-04-24 21:13 35.61817 -0.62063 301 ft 18 kts 247°
2026-04-24 21:14 35.61766 -0.62209 303 ft 19 kts 246°
2026-04-24 21:14 35.61712 -0.62364 301 ft 20 kts 247°
2026-04-24 21:14 35.61655 -0.62530 303 ft 22 kts 247°
2026-04-24 21:14 35.61596 -0.62700 303 ft 22 kts 247°
2026-04-24 21:15 35.61533 -0.62880 300 ft 23 kts 247°
2026-04-24 21:15 35.61469 -0.63067 300 ft 24 kts 247°
2026-04-24 21:15 35.61404 -0.63260 302 ft 25 kts 248°
2026-04-24 21:15 35.61338 -0.63457 303 ft 25 kts 247°
2026-04-24 21:16 35.61292 -0.63590 299 ft 15 kts 247°
2026-04-24 21:16 35.61250 -0.63717 300 ft 17 kts 248°
2026-04-24 21:16 35.61215 -0.63857 298 ft 18 kts 269°
2026-04-24 21:16 35.61271 -0.63990 301 ft 9 kts 325°
2026-04-24 21:17 35.61309 -0.64015 298 ft 7 kts 333°
2026-04-24 21:17 35.61361 -0.64043 299 ft 9 kts 337°
2026-04-24 21:17 35.61425 -0.64076 298 ft 11 kts 337°
2026-04-24 21:17 35.61496 -0.64112 299 ft 12 kts 338°
2026-04-24 21:18 35.61576 -0.64152 301 ft 13 kts 338°
2026-04-24 21:18 35.61647 -0.64186 300 ft 10 kts 347°
2026-04-24 21:18 35.61675 -0.64180 299 ft 2 kts 38°
2026-04-24 21:18 35.61686 -0.64155 300 ft 4 kts 66°
2026-04-24 21:19 35.61720 -0.64052 300 ft 38 kts 68°
2026-04-24 21:19 35.61913 -0.63442 302 ft 113 kts 70°
2026-04-24 21:19 35.62202 -0.62342 516 ft 150 kts 72°
2026-04-24 21:19 35.62541 -0.61014 1023 ft 175 kts 69°
2026-04-24 21:20 35.63458 -0.58288 2835 ft 163 kts 64°
2026-04-24 21:20 35.63924 -0.57052 3732 ft 155 kts 64°
2026-04-24 21:20 35.64375 -0.55838 4360 ft 166 kts 65°
2026-04-24 21:21 35.64891 -0.54445 4666 ft 193 kts 65°
2026-04-24 21:21 35.65444 -0.52902 5281 ft 201 kts 65°
2026-04-24 21:21 35.66014 -0.51274 5765 ft 219 kts 66°
2026-04-24 21:21 35.66658 -0.49416 6004 ft 252 kts 66°
2026-04-24 21:22 35.67366 -0.47353 6603 ft 269 kts 66°
2026-04-24 21:22 35.68097 -0.45202 7476 ft 276 kts 67°
2026-04-24 21:22 35.68839 -0.43003 8441 ft 281 kts 68°
2026-04-24 21:22 35.69593 -0.40761 9402 ft 286 kts 68°
2026-04-24 21:23 35.70360 -0.38480 10352 ft 292 kts 68°
2026-04-24 21:23 35.71132 -0.36074 10815 ft 316 kts 75°
2026-04-24 21:23 35.71325 -0.33323 11021 ft 342 kts 95°
2026-04-24 21:23 35.71062 -0.30318 11356 ft 363 kts 99°
2026-04-24 21:24 35.70689 -0.27199 11979 ft 373 kts 100°
2026-04-24 21:24 35.70364 -0.23996 12671 ft 384 kts 91°
2026-04-24 21:24 35.70938 -0.20786 13509 ft 389 kts 65°
2026-04-24 21:24 35.72480 -0.18050 14464 ft 392 kts 45°
2026-04-24 21:25 35.74659 -0.16020 15331 ft 397 kts 28°
2026-04-24 21:25 35.77243 -0.14806 16138 ft 401 kts 11°
2026-04-24 21:25 35.79977 -0.14301 16921 ft 405 kts
2026-04-24 21:25 35.82803 -0.13987 17677 ft 411 kts
2026-04-24 21:26 35.83591 -0.13915 17886 ft 412 kts
2026-04-24 21:26 35.86472 -0.13668 18623 ft 417 kts
2026-04-24 21:26 35.89385 -0.13415 19349 ft 422 kts
2026-04-24 21:26 35.92327 -0.13138 20036 ft 427 kts
2026-04-24 21:27 35.95306 -0.12837 20708 ft 432 kts
2026-04-24 21:27 35.98312 -0.12515 21345 ft 437 kts
2026-04-24 21:27 36.01354 -0.12179 21979 ft 441 kts
2026-04-24 21:27 36.04422 -0.11835 22598 ft 444 kts
2026-04-24 21:28 36.07473 -0.11490 23197 ft 448 kts
2026-04-24 21:28 36.10589 -0.11135 23748 ft 452 kts
2026-04-24 21:28 36.13737 -0.10776 24266 ft 457 kts
2026-04-24 21:28 36.16920 -0.10414 24771 ft 461 kts
2026-04-24 21:29 36.20132 -0.10050 25284 ft 465 kts
2026-04-24 21:29 36.23361 -0.09685 25795 ft 468 kts
2026-04-24 21:29 36.26616 -0.09316 26101 ft 473 kts
2026-04-24 21:29 36.29884 -0.08945 26097 ft 482 kts
2026-04-24 21:30 36.33244 -0.08563 26111 ft 488 kts
2026-04-24 21:30 36.36640 -0.08177 26106 ft 490 kts
2026-04-24 21:30 36.40032 -0.07791 26101 ft 490 kts
2026-04-24 21:30 36.43430 -0.07405 26101 ft 490 kts
2026-04-24 21:31 36.44464 -0.07287 26102 ft 490 kts
2026-04-24 21:31 36.47854 -0.06901 26102 ft 489 kts
2026-04-24 21:31 36.51233 -0.06516 26098 ft 488 kts
2026-04-24 21:31 36.54575 -0.06134 26102 ft 487 kts
2026-04-24 21:32 36.57939 -0.05749 26108 ft 487 kts
2026-04-24 21:32 36.61320 -0.05363 26116 ft 486 kts
2026-04-24 21:32 36.64687 -0.04976 26110 ft 486 kts
2026-04-24 21:32 36.68054 -0.04590 26106 ft 486 kts
2026-04-24 21:33 36.71422 -0.04203 26104 ft 486 kts
2026-04-24 21:33 36.74789 -0.03817 26102 ft 486 kts
2026-04-24 21:33 36.78153 -0.03431 26102 ft 485 kts
2026-04-24 21:33 36.81517 -0.03044 26106 ft 485 kts
2026-04-24 21:34 36.84834 -0.02662 26110 ft 485 kts
2026-04-24 21:34 36.88200 -0.02310 26112 ft 486 kts
2026-04-24 21:34 36.91583 -0.02164 26109 ft 487 kts
2026-04-24 21:34 36.94970 -0.02153 26113 ft 487 kts
2026-04-24 21:35 36.98357 -0.02190 26111 ft 486 kts
2026-04-24 21:35 37.01740 -0.02230 26109 ft 486 kts
2026-04-24 21:35 37.05121 -0.02254 26110 ft 486 kts
2026-04-24 21:35 37.08499 -0.02258 26111 ft 486 kts
2026-04-24 21:36 37.09413 -0.02256 26111 ft 486 kts
2026-04-24 21:36 37.12791 -0.02243 26115 ft 485 kts
2026-04-24 21:36 37.16167 -0.02222 26115 ft 485 kts
2026-04-24 21:36 37.19543 -0.02198 26118 ft 485 kts
2026-04-24 21:37 37.22924 -0.02173 26122 ft 486 kts
2026-04-24 21:37 37.26303 -0.02149 26120 ft 486 kts
2026-04-24 21:37 37.29681 -0.02125 26118 ft 486 kts
2026-04-24 21:37 37.33064 -0.02102 26121 ft 486 kts
2026-04-24 21:38 37.36441 -0.02082 26120 ft 486 kts
2026-04-24 21:38 37.39779 -0.02062 26117 ft 486 kts
2026-04-24 21:38 37.43159 -0.02037 26124 ft 486 kts
2026-04-24 21:38 37.46541 -0.02009 26124 ft 486 kts
2026-04-24 21:39 37.49920 -0.01986 26118 ft 486 kts
2026-04-24 21:39 37.53301 -0.01967 26118 ft 486 kts
2026-04-24 21:39 37.56675 -0.01947 26121 ft 486 kts
2026-04-24 21:39 37.60051 -0.01927 26120 ft 485 kts
2026-04-24 21:40 37.63428 -0.01906 26120 ft 485 kts
2026-04-24 21:40 37.66759 -0.01886 26119 ft 485 kts
2026-04-24 21:40 37.70136 -0.01863 26122 ft 485 kts
2026-04-24 21:40 37.73510 -0.01841 26123 ft 485 kts
2026-04-24 21:41 37.74504 -0.01834 26122 ft 485 kts
2026-04-24 21:41 37.77883 -0.01811 26121 ft 485 kts
2026-04-24 21:41 37.81259 -0.01789 25743 ft 487 kts
2026-04-24 21:41 37.84673 -0.01767 24481 ft 492 kts
2026-04-24 21:42 37.88086 -0.01745 23402 ft 487 kts
2026-04-24 21:42 37.91388 -0.02006 22385 ft 480 kts 348°
2026-04-24 21:42 37.94476 -0.03473 21461 ft 471 kts 332°
2026-04-24 21:42 37.97148 -0.05811 20524 ft 463 kts 317°
2026-04-24 21:43 37.99279 -0.08788 19519 ft 454 kts 305°
2026-04-24 21:43 38.01090 -0.12001 18617 ft 444 kts 303°
2026-04-24 21:43 38.02837 -0.15208 17590 ft 439 kts 304°
2026-04-24 21:43 38.04589 -0.18364 16609 ft 434 kts 305°
2026-04-24 21:44 38.06339 -0.21443 15609 ft 429 kts 305°
2026-04-24 21:44 38.08084 -0.24473 14740 ft 420 kts 306°
2026-04-24 21:44 38.09806 -0.27449 13773 ft 416 kts 306°
2026-04-24 21:44 38.11479 -0.30336 12832 ft 408 kts 306°
2026-04-24 21:45 38.13128 -0.33184 11827 ft 392 kts 306°
2026-04-24 21:45 38.14710 -0.35923 10970 ft 377 kts 306°
2026-04-24 21:45 38.16210 -0.38523 10847 ft 356 kts 306°
2026-04-24 21:45 38.17656 -0.41035 10667 ft 348 kts 306°
2026-04-24 21:46 38.18089 -0.41794 10625 ft 346 kts 304°
2026-04-24 21:46 38.19115 -0.44464 10447 ft 327 kts 283°
2026-04-24 21:46 38.19475 -0.47206 10331 ft 304 kts 277°
2026-04-24 21:46 38.19744 -0.49748 10234 ft 284 kts 278°
2026-04-24 21:47 38.20053 -0.52170 10159 ft 273 kts 279°
2026-04-24 21:47 38.20372 -0.54545 10015 ft 275 kts 279°
2026-04-24 21:47 38.20701 -0.56983 9817 ft 282 kts 279°
2026-04-24 21:47 38.21035 -0.59463 9669 ft 287 kts 279°
2026-04-24 21:48 38.21375 -0.61989 9303 ft 293 kts 279°
2026-04-24 21:48 38.21717 -0.64548 8867 ft 293 kts 279°
2026-04-24 21:48 38.22052 -0.67087 8504 ft 289 kts 279°
2026-04-24 21:48 38.22379 -0.69595 8163 ft 285 kts 279°
2026-04-24 21:49 38.22693 -0.72035 7856 ft 282 kts 279°
2026-04-24 21:49 38.23004 -0.74471 7582 ft 277 kts 279°
2026-04-24 21:49 38.23308 -0.76864 7319 ft 271 kts 279°
2026-04-24 21:49 38.23602 -0.79208 7082 ft 266 kts 278°
2026-04-24 21:50 38.23880 -0.81493 6882 ft 257 kts 279°
2026-04-24 21:50 38.24151 -0.83691 6844 ft 245 kts 279°
2026-04-24 21:50 38.24410 -0.85761 6721 ft 236 kts 280°
2026-04-24 21:50 38.24672 -0.87790 6637 ft 231 kts 279°
2026-04-24 21:51 38.24929 -0.89825 6497 ft 238 kts 281°
2026-04-24 21:51 38.25211 -0.91958 6151 ft 239 kts 279°
2026-04-24 21:51 38.25761 -0.93857 6086 ft 224 kts 314°
2026-04-24 21:51 38.26994 -0.94769 6087 ft 196 kts 359°
2026-04-24 21:52 38.28327 -0.94618 5981 ft 197 kts 15°
2026-04-24 21:52 38.29605 -0.94053 5715 ft 192 kts 33°
2026-04-24 21:52 38.30581 -0.92990 5473 ft 183 kts 54°
2026-04-24 21:52 38.31192 -0.91624 5250 ft 175 kts 71°
2026-04-24 21:53 38.31410 -0.90138 5047 ft 168 kts 88°
2026-04-24 21:53 38.31402 -0.88660 4846 ft 167 kts 90°
2026-04-24 21:53 38.31377 -0.87189 4632 ft 164 kts 91°
2026-04-24 21:53 38.31352 -0.85765 4434 ft 158 kts 91°
2026-04-24 21:54 38.31327 -0.84389 4233 ft 154 kts 90°
2026-04-24 21:54 38.31303 -0.83024 4066 ft 155 kts 90°
2026-04-24 21:54 38.31278 -0.81647 3883 ft 157 kts 90°
2026-04-24 21:54 38.31254 -0.80262 3675 ft 156 kts 90°
2026-04-24 21:55 38.31228 -0.78909 3493 ft 154 kts 90°
2026-04-24 21:55 38.31184 -0.77534 3276 ft 158 kts 94°
2026-04-24 21:55 38.31045 -0.76149 3053 ft 156 kts 97°
2026-04-24 21:55 38.30869 -0.74791 2840 ft 154 kts 98°
2026-04-24 21:56 38.30685 -0.73451 2636 ft 154 kts 98°
2026-04-24 21:56 38.30497 -0.72109 2456 ft 154 kts 98°
2026-04-24 21:56 38.30309 -0.70766 2226 ft 153 kts 99°
2026-04-24 21:56 38.30122 -0.69435 2031 ft 152 kts 98°
2026-04-24 21:57 38.29937 -0.68124 1821 ft 153 kts 98°
2026-04-24 21:57 38.29753 -0.66804 1616 ft 150 kts 98°
2026-04-24 21:57 38.29577 -0.65559 1455 ft 137 kts 98°
2026-04-24 21:57 38.29415 -0.64396 1264 ft 131 kts 98°
2026-04-24 21:58 38.29254 -0.63243 1084 ft 134 kts 98°
2026-04-24 21:58 38.29091 -0.62072 901 ft 134 kts 98°
2026-04-24 21:58 38.28930 -0.60907 728 ft 133 kts 98°
2026-04-24 21:58 38.28775 -0.59775 511 ft 127 kts 98°
2026-04-24 21:59 38.28623 -0.58711 362 ft 118 kts 98°
2026-04-24 21:59 38.28476 -0.57724 203 ft 112 kts 97°
2026-04-24 21:59 38.28352 -0.56801 122 ft 96 kts 99°
2026-04-24 21:59 38.28266 -0.56154 107 ft 52 kts 99°
2026-04-24 22:00 38.28219 -0.55810 100 ft 27 kts 100°
2026-04-24 22:00 38.28230 -0.55614 94 ft 15 kts 78°
2026-04-24 22:00 38.28261 -0.55483 89 ft 16 kts 70°
2026-04-24 22:00 38.28302 -0.55347 86 ft 16 kts 69°
2026-04-24 22:01 38.28338 -0.55254 85 ft 11 kts 57°
2026-04-24 22:01 38.28380 -0.55178 84 ft 5 kts 54°
2026-04-24 22:01 38.28407 -0.55156 80 ft 5 kts
2026-04-24 22:01 38.28435 -0.55175 83 ft 5 kts 314°
2026-04-24 22:02 38.28464 -0.55186 83 ft 5 kts
2026-04-24 22:02 38.28496 -0.55181 87 ft 4 kts
2026-04-24 22:02 38.28526 -0.55175 87 ft 4 kts 11°
2026-04-24 22:02 38.28527 -0.55175 87 ft 0 kts 11°